EA4DB Madrid ES current weather conditions

sailwx.info

Wind from 135

Air temperature 17.8° C
Dewpoint 9.9° C

Last reported at 2014-Oct-31 19:41 UTC.
Time now 2014-Nov-01 03:56 UTC

Location: N 40°25' W 003°39'.
View on Google Maps.

See reports from other nearby stations

  
Tides and Currents Weather Stations Pressure Air Temp Water Temp Dewpoint Dewpoint Depression Visibility Wind Speed Wind Dir Waves Ship Positions
date/time (UTC)wind fromknots sea level pressurealtimeterstation pressurevisibilityair tempwater tempwave heightnotes
2014-Oct-31 19:41 135 17.8
2014-Oct-31 19:36 225 17.8
2014-Oct-31 19:31 225 17.8
2014-Oct-31 19:26 090 18.3
2014-Oct-31 19:21 090 18.9
2014-Oct-31 19:16 090 19.4
2014-Oct-31 19:11 090 20.0
2014-Oct-31 19:06 090 20.6
2014-Oct-31 19:01 090 20.0
2014-Oct-31 18:56 090 20.0
2014-Oct-31 18:51 090 0 gusting 1 20.0
2014-Oct-31 18:46 135 19.4
2014-Oct-31 18:41 180 20.0
2014-Oct-31 18:36 225 20.0
2014-Oct-31 18:31 225 20.0
2014-Oct-31 18:26 225 20.0
2014-Oct-31 18:21 135 20.0
2014-Oct-31 18:16 270 20.6
2014-Oct-31 18:11 135 20.6
2014-Oct-31 18:06 135 20.6
2014-Oct-31 18:01 225 21.7
2014-Oct-31 17:56 135 21.7
2014-Oct-31 17:51 270 22.2
2014-Oct-31 17:46 180 0 gusting 1 22.2
2014-Oct-31 17:41 180 1 gusting 3 22.2
2014-Oct-31 17:36 180 1 gusting 3 22.2
2014-Oct-31 17:31 180 1 gusting 1 21.7
2014-Oct-31 17:26 180 22.2
2014-Oct-31 17:21 180 22.8
2014-Oct-31 17:16 180 22.8
2014-Oct-31 17:11 135 23.3
2014-Oct-31 17:06 180 0 gusting 1 23.3
2014-Oct-31 17:01 180 0 gusting 2 23.9
2014-Oct-31 16:56 225 24.4
2014-Oct-31 16:51 180 24.4
2014-Oct-31 16:46 180 25.6
2014-Oct-31 16:41 225 26.1
2014-Oct-31 16:36 248 0 gusting 3 26.1
2014-Oct-31 16:31 180 0 gusting 2 26.7
2014-Oct-31 16:26 225 1 gusting 3 26.1
2014-Oct-31 16:21 180 2 gusting 6 26.7
2014-Oct-31 16:16 180 26.7
2014-Oct-31 16:11 180 3 gusting 6 26.7
2014-Oct-31 16:06 090 4 gusting 6 27.2
2014-Oct-31 16:01 180 1 gusting 3 27.2
2014-Oct-31 15:56 225 0 gusting 5 27.2
2014-Oct-31 15:51 180 2 gusting 6 27.2
2014-Oct-31 15:46 180 1 gusting 6 27.8
2014-Oct-31 15:41 180 2 gusting 6 28.3
2014-Oct-31 15:36 27.8
2014-Oct-31 15:31 270 1 gusting 3 27.2
2014-Oct-31 15:26 315 2 gusting 9 27.2
2014-Oct-31 15:21 225 4 gusting 6 27.8
2014-Oct-31 15:16 090 1 gusting 6 27.2
2014-Oct-31 15:11 180 2 gusting 6 27.2
2014-Oct-31 15:06 225 27.8
2014-Oct-31 15:01 27.2
2014-Oct-31 14:56 180 3 gusting 6 27.8
2014-Oct-31 14:51 270 0 gusting 5 27.8
2014-Oct-31 14:46 135 1 gusting 6 27.8
2014-Oct-31 14:41 225 27.8
2014-Oct-31 14:36 27.2
2014-Oct-31 14:31 180 2 gusting 6 27.2
2014-Oct-31 14:26 180 3 gusting 8 27.2
2014-Oct-31 14:21 270 0 gusting 3 27.8
2014-Oct-31 14:16 225 3 gusting 6 27.8
2014-Oct-31 14:11 180 2 gusting 6 27.8
2014-Oct-31 14:06 27.8
2014-Oct-31 14:01 225 0 gusting 4 27.8
2014-Oct-31 13:56 135 1 gusting 5 28.3
2014-Oct-31 13:51 180 0 gusting 3 27.2
2014-Oct-31 13:46 225 27.2
2014-Oct-31 13:41 225 3 gusting 5 28.3
2014-Oct-31 13:36 180 3 gusting 6 27.8
2014-Oct-31 13:31 180 1 gusting 5 27.8
2014-Oct-31 13:26 27.8
2014-Oct-31 13:21 27.8
2014-Oct-31 13:16 180 1 gusting 3 27.8
2014-Oct-31 13:11 225 1 gusting 3 27.8
2014-Oct-31 13:06 180 2 gusting 6 27.2
2014-Oct-31 13:01 270 3 gusting 6 27.8
2014-Oct-31 12:56 225 1 gusting 6 27.8
2014-Oct-31 12:51 270 0 gusting 3 27.8
2014-Oct-31 12:46 270 26.7
2014-Oct-31 12:41 045 26.1
2014-Oct-31 12:36 180 3 gusting 6 26.1
2014-Oct-31 12:31 315 0 gusting 4 26.7
2014-Oct-31 12:26 135 1 gusting 5 26.7
2014-Oct-31 12:21 26.1
2014-Oct-31 12:16 180 1 gusting 6 26.1
2014-Oct-31 12:11 135 0 gusting 5 26.1
2014-Oct-31 12:06 135 0 gusting 3 26.7
2014-Oct-31 12:01 26.1
2014-Oct-31 11:56 045 1 gusting 4 26.1
2014-Oct-31 11:51 225 0 gusting 5 25.6
2014-Oct-31 11:46 225 0 gusting 4 26.1
2014-Oct-31 11:41 045 26.1
2014-Oct-31 11:36 25.6
2014-Oct-31 11:31 225 1 gusting 2 25.6
2014-Oct-31 11:26 045 1 gusting 3 25.6
2014-Oct-31 11:21 25.6
2014-Oct-31 11:16 26.1
2014-Oct-31 11:11 270 25.6
2014-Oct-31 11:06 135 0 gusting 3 26.1
2014-Oct-31 11:01 315 25.6
2014-Oct-31 10:56 270 25.6
2014-Oct-31 10:51 24.4
2014-Oct-31 10:46 25.6
2014-Oct-31 10:41 045 25.6
2014-Oct-31 10:36 315 25.6
2014-Oct-31 10:31 045 25.6
2014-Oct-31 10:26 090 24.4
2014-Oct-31 10:21 293 0 gusting 2 23.9
2014-Oct-31 10:16 045 1 gusting 3 24.4
2014-Oct-31 10:11 090 0 gusting 2 24.4
2014-Oct-31 10:06 23.3
2014-Oct-31 10:01 045 23.3
2014-Oct-31 09:56 045 1 gusting 2 23.3
2014-Oct-31 09:51 22.2
2014-Oct-31 09:46 22.2
2014-Oct-31 09:41 045 1 gusting 3 22.2
2014-Oct-31 09:36 090 0 gusting 3 22.8
2014-Oct-31 09:31 270 22.2
2014-Oct-31 09:26 045 21.1
2014-Oct-31 09:21 135 0 gusting 4 21.7
2014-Oct-31 09:16 090 1 gusting 3 21.1
2014-Oct-31 09:11 315 21.1
2014-Oct-31 09:06 090 20.0
2014-Oct-31 09:01 090 0 gusting 4 20.0
2014-Oct-31 08:56 045 20.6
2014-Oct-31 08:51 135 1 gusting 3 20.6
2014-Oct-31 08:46 113 0 gusting 3 20.0
2014-Oct-31 08:41 090 20.0
2014-Oct-31 08:36 068 0 gusting 3 19.4
2014-Oct-31 08:31 270 1 gusting 5 19.4
2014-Oct-31 08:26 19.4
2014-Oct-31 08:21 315 0 gusting 2 18.3
2014-Oct-31 08:16 090 18.3
2014-Oct-31 08:11 315 0 gusting 4 17.8
2014-Oct-31 08:06 045 0 gusting 4 17.8
2014-Oct-31 08:01 090 1 gusting 3 17.2
2014-Oct-31 07:56 045 0 gusting 3 16.7
2014-Oct-31 07:51 045 2 gusting 4 17.2
2014-Oct-31 07:46 16.7
2014-Oct-31 07:41 045 16.1
2014-Oct-31 07:36 045 1 gusting 3 15.6
2014-Oct-31 07:31 045 0 gusting 2 15.0
2014-Oct-31 07:26 090 0 gusting 1 14.4
2014-Oct-31 07:21 045 14.4
2014-Oct-31 07:16 270 13.3
2014-Oct-31 07:11 180 13.3
2014-Oct-31 07:06 13.3
2014-Oct-31 07:01 045 0 gusting 3 13.3
2014-Oct-31 06:56 13.3
2014-Oct-31 06:51 045 13.9
2014-Oct-31 06:46 090 0 gusting 3 13.3
2014-Oct-31 06:41 090 0 gusting 3 13.3
2014-Oct-31 06:36 13.3
2014-Oct-31 06:31 13.9
2014-Oct-31 06:26 090 0 gusting 3 13.3
2014-Oct-31 06:21 13.3
2014-Oct-31 06:16 068 1 gusting 3 13.3
2014-Oct-31 06:11 045 13.3
2014-Oct-31 06:06 045 13.3
2014-Oct-31 06:01 13.3
2014-Oct-31 05:56 090 1 gusting 3 13.3
2014-Oct-31 05:51 045 1 gusting 4 13.3
2014-Oct-31 05:46 315 1 gusting 7 13.3
2014-Oct-31 05:41 090 1 gusting 4 13.3
2014-Oct-31 05:36 090 0 gusting 3 13.9
2014-Oct-31 05:31 068 1 gusting 3 13.3
2014-Oct-31 05:26 12.8
2014-Oct-31 05:21 13.3
2014-Oct-31 05:16 13.3
2014-Oct-31 05:11 045 0 gusting 6 13.9
2014-Oct-31 05:06 090 0 gusting 4 13.9
2014-Oct-31 05:01 090 1 gusting 3 13.9
2014-Oct-31 04:56 13.3
2014-Oct-31 04:51 045 0 gusting 3 13.9
2014-Oct-31 04:46 090 0 gusting 3 13.9
2014-Oct-31 04:41 13.3
2014-Oct-31 04:36 090 0 gusting 3 13.9
2014-Oct-31 04:31 135 13.9
2014-Oct-31 04:26 090 13.9
2014-Oct-31 04:21 13.9
2014-Oct-31 04:16 045 14.4
2014-Oct-31 04:11 293 14.4
2014-Oct-31 04:06 14.4
2014-Oct-31 04:01 14.4
2014-Oct-31 03:56 315 0 gusting 2 13.9
2014-Oct-31 03:51 135 13.9
2014-Oct-31 03:46 090 13.9
2014-Oct-31 03:41 090 14.4
2014-Oct-31 03:36 090 0 gusting 3 14.4
2014-Oct-31 03:31 090 14.4
2014-Oct-31 03:26 14.4
2014-Oct-31 03:21 14.4
2014-Oct-31 03:16 14.4
2014-Oct-31 03:11 14.4
2014-Oct-31 03:06 14.4
2014-Oct-31 03:01 14.4
2014-Oct-31 02:56 315 15.0
2014-Oct-31 02:51 15.0
2014-Oct-31 02:46 15.6
2014-Oct-31 02:41 14.4
2014-Oct-31 02:36 180 15.0
2014-Oct-31 02:31 045 15.0
2014-Oct-31 02:26 15.6
2014-Oct-31 02:21 15.0
2014-Oct-31 02:16 090 0 gusting 2 15.6
2014-Oct-31 02:11 15.0
2014-Oct-31 02:06 090 15.6
2014-Oct-31 02:01 090 15.6
2014-Oct-31 01:56 045 15.0
2014-Oct-31 01:51 15.6
2014-Oct-31 01:46 315 15.0
2014-Oct-31 01:41 180 0 gusting 2 15.6
2014-Oct-31 01:36 15.6
2014-Oct-31 01:31 15.6
2014-Oct-31 01:26 090 15.6
2014-Oct-31 01:21 15.6
2014-Oct-31 01:16 045 16.1
2014-Oct-31 01:11 135 0 gusting 2 15.6
2014-Oct-31 01:06 090 16.1
2014-Oct-31 01:01 090 16.1
2014-Oct-31 00:56 045 16.1
2014-Oct-31 00:51 315 16.1
2014-Oct-31 00:46 16.1
2014-Oct-31 00:41 045 16.1
2014-Oct-31 00:36 045 1 gusting 3 16.1
2014-Oct-31 00:31 135 15.6
2014-Oct-31 00:26 090 16.1
2014-Oct-31 00:21 090 16.1
2014-Oct-31 00:16 045 16.1
2014-Oct-31 00:11 045 16.1
2014-Oct-31 00:07 16.1
2014-Oct-30 23:56 16.1
2014-Oct-30 23:51 135 16.7
2014-Oct-30 23:46 16.7
2014-Oct-30 23:41 045 0 gusting 2 16.7
2014-Oct-30 23:36 270 16.7
2014-Oct-30 23:31 16.7
2014-Oct-30 23:26 045 16.7
2014-Oct-30 23:21 16.7
2014-Oct-30 23:16 17.2
2014-Oct-30 23:11 17.2
2014-Oct-30 23:06 090 17.2
2014-Oct-30 23:01 045 0 gusting 3 17.2
2014-Oct-30 22:56 045 17.8
2014-Oct-30 22:51 090 17.2
2014-Oct-30 22:46 17.8
2014-Oct-30 22:41 090 17.8
2014-Oct-30 22:36 180 17.8
2014-Oct-30 22:31 090 18.3
2014-Oct-30 22:26 18.3
2014-Oct-30 22:21 045 0 gusting 2 18.3
2014-Oct-30 22:16 18.3
2014-Oct-30 22:11 18.3
2014-Oct-30 22:06 090 18.3
2014-Oct-30 22:01 315 18.3
2014-Oct-30 21:56 135 18.9
2014-Oct-30 21:51 045 0 gusting 3 18.9
2014-Oct-30 21:46 045 0 gusting 2 18.9
2014-Oct-30 21:41 18.9
2014-Oct-30 21:36 315 0 gusting 3 19.4
2014-Oct-30 21:31 18.9
2014-Oct-30 21:26 19.4
2014-Oct-30 21:21 045 1 gusting 3 19.4
2014-Oct-30 21:16 045 0 gusting 4 19.4
2014-Oct-30 21:11 315 19.4
2014-Oct-30 21:06 315 0 gusting 3 20.0
2014-Oct-30 21:01 20.0
2014-Oct-30 20:56 293 1 gusting 3 20.6
2014-Oct-30 20:51 20.0
2014-Oct-30 20:46 045 0 gusting 1 19.4
2014-Oct-30 20:41 045 1 gusting 2 21.1
2014-Oct-30 20:36 21.1
2014-Oct-30 20:31 090 21.1
2014-Oct-30 20:26 21.7
2014-Oct-30 20:21 090 1 gusting 2 21.7
2014-Oct-30 20:16 090 1 gusting 2 21.7
2014-Oct-30 20:11 045 1 gusting 2 21.7
2014-Oct-30 20:06 090 21.7
2014-Oct-30 20:01 090 21.7
2014-Oct-30 19:56 045 21.1
2014-Oct-30 19:51 090 21.1
2014-Oct-30 19:46 090 20.6
2014-Oct-30 19:41 045 20.0
2014-Oct-30 19:36 045 20.0
2014-Oct-30 19:31 045 19.4
2014-Oct-30 19:26 045 19.4
2014-Oct-30 19:21 045 20.6
2014-Oct-30 19:16 045 20.0
2014-Oct-30 19:11 045 20.6
2014-Oct-30 19:06 045 21.1
2014-Oct-30 19:01 045 21.1
2014-Oct-30 18:56 045 20.6
2014-Oct-30 18:51 090 20.0
2014-Oct-30 18:46 045 19.4
2014-Oct-30 18:41 045 20.0
2014-Oct-30 18:36 045 20.6
2014-Oct-30 18:31 045 20.6
2014-Oct-30 18:26 045 20.6
2014-Oct-30 18:21 045 20.6
2014-Oct-30 18:16 045 21.1
2014-Oct-30 18:11 045 21.7
2014-Oct-30 18:06 090 22.2
2014-Oct-30 18:01 090 22.8
2014-Oct-30 17:56 090 22.8
2014-Oct-30 17:51 090 0 gusting 1 23.3
2014-Oct-30 17:46 090 23.3
2014-Oct-30 17:41 090 23.3
2014-Oct-30 17:36 045 23.3
2014-Oct-30 17:31 045 23.9
2014-Oct-30 17:26 045 23.9
2014-Oct-30 17:21 045 24.4
2014-Oct-30 17:16 045 24.4
2014-Oct-30 17:11 045 25.6
2014-Oct-30 17:06 045 26.1
2014-Oct-30 17:01 045 26.1
2014-Oct-30 16:56 045 26.1
2014-Oct-30 16:51 045 27.2
2014-Oct-30 16:46 045 27.8
2014-Oct-30 16:41 28.9
2014-Oct-30 16:36 090 28.9
2014-Oct-30 16:31 090 28.3
2014-Oct-30 16:26 30.0
2014-Oct-30 16:21 090 29.4
2014-Oct-30 16:16 135 30.0
2014-Oct-30 16:11 045 30.0
2014-Oct-30 16:06 135 30.6
2014-Oct-30 16:01 30.6
2014-Oct-30 15:56 068 0 gusting 1 30.6
2014-Oct-30 15:51 31.1
2014-Oct-30 15:46 31.1
2014-Oct-30 15:41 225 31.7
2014-Oct-30 15:36 180 0 gusting 1 31.7
2014-Oct-30 15:31 090 31.1
2014-Oct-30 15:26 315 31.1
2014-Oct-30 15:21 090 30.6
2014-Oct-30 15:16 045 0 gusting 2 31.1
2014-Oct-30 15:11 31.1
2014-Oct-30 15:06 30.6
2014-Oct-30 15:01 315 0 gusting 2 30.6
2014-Oct-30 14:56 30.6
2014-Oct-30 14:51 225 31.1
2014-Oct-30 14:46 045 0 gusting 3 31.7
2014-Oct-30 14:41 31.7
2014-Oct-30 14:36 315 0 gusting 1 31.1
2014-Oct-30 14:31 31.1
2014-Oct-30 14:26 31.1
2014-Oct-30 14:21 225 31.7
2014-Oct-30 14:16 225 31.1
2014-Oct-30 14:11 135 0 gusting 2 30.6
2014-Oct-30 14:06 270 31.1
2014-Oct-30 14:01 045 31.1
2014-Oct-30 13:56 225 0 gusting 1 31.1
2014-Oct-30 13:51 225 0 gusting 2 30.6
2014-Oct-30 13:46 30.0
2014-Oct-30 13:41 29.4
2014-Oct-30 13:36 29.4
2014-Oct-30 13:31 30.0
2014-Oct-30 13:26 045 0 gusting 3 29.4
2014-Oct-30 13:21 180 1 gusting 2 29.4
2014-Oct-30 13:16 045 0 gusting 2 29.4
2014-Oct-30 13:11 045 1 gusting 3 29.4
2014-Oct-30 13:06 045 29.4
2014-Oct-30 13:01 068 0 gusting 2 29.4
2014-Oct-30 12:56 29.4
2014-Oct-30 12:51 045 28.9
2014-Oct-30 12:46 315 28.3
2014-Oct-30 12:41 045 0 gusting 2 27.8
2014-Oct-30 12:36 270 1 gusting 3 27.8
2014-Oct-30 12:31 045 1 gusting 2 27.8
2014-Oct-30 12:26 27.8
2014-Oct-30 12:21 315 0 gusting 3 27.8
2014-Oct-30 12:16 315 28.3
2014-Oct-30 12:11 090 1 gusting 2 27.8
2014-Oct-30 12:06 270 27.2
2014-Oct-30 12:01 315 1 gusting 2 27.2
2014-Oct-30 11:56 27.2
2014-Oct-30 11:51 315 27.2
2014-Oct-30 11:46 26.7
2014-Oct-30 11:41 26.1
2014-Oct-30 11:36 315 1 gusting 5 25.6
2014-Oct-30 11:31 26.1
2014-Oct-30 11:26 26.1
2014-Oct-30 11:21 045 0 gusting 2 26.1
2014-Oct-30 11:16 045 26.7
2014-Oct-30 11:11 045 0 gusting 3 26.7
2014-Oct-30 11:06 225 26.7
2014-Oct-30 11:01 045 0 gusting 2 26.7
2014-Oct-30 10:56 045 1 gusting 2 26.7
2014-Oct-30 10:51 225 26.1
2014-Oct-30 10:46 26.1
2014-Oct-30 10:41 135 25.6
2014-Oct-30 10:36 045 0 gusting 3 25.6
2014-Oct-30 10:31 25.6
2014-Oct-30 10:26 25.6
2014-Oct-30 10:21 090 25.0
2014-Oct-30 10:16 045 0 gusting 1 25.0
2014-Oct-30 10:11 045 25.0
2014-Oct-30 10:06 23.9
2014-Oct-30 10:01 23.9
2014-Oct-30 09:56 315 23.9
2014-Oct-30 09:51 23.9
2014-Oct-30 09:46 23.9
2014-Oct-30 09:41 045 23.9
2014-Oct-30 09:36 315 0 gusting 1 23.3
2014-Oct-30 09:31 045 0 gusting 1 22.8
2014-Oct-30 09:26 045 0 gusting 1 22.2
2014-Oct-30 09:21 045 0 gusting 3 21.7
2014-Oct-30 09:16 045 0 gusting 2 21.7
2014-Oct-30 09:11 045 22.2
2014-Oct-30 09:06 315 21.7
2014-Oct-30 09:01 315 21.7
2014-Oct-30 08:56 21.7
2014-Oct-30 08:51 315 1 gusting 3 21.1
2014-Oct-30 08:46 315 21.1
2014-Oct-30 08:41 225 20.6
2014-Oct-30 08:36 090 20.6
2014-Oct-30 08:31 315 20.0
2014-Oct-30 08:26 045 20.0
2014-Oct-30 08:21 18.9
2014-Oct-30 08:16 045 18.3
2014-Oct-30 08:11 090 17.8
2014-Oct-30 08:06 135 17.2
2014-Oct-30 08:01 180 1 gusting 2 17.2
2014-Oct-30 07:56 090 1 gusting 3 16.7
2014-Oct-30 07:51 090 0 gusting 2 16.7
2014-Oct-30 07:46 045 1 gusting 2 16.7
2014-Oct-30 07:41 045 16.1
2014-Oct-30 07:36 090 16.1
2014-Oct-30 07:31 090 15.0
2014-Oct-30 07:26 15.0
2014-Oct-30 07:21 045 13.9
2014-Oct-30 07:16 13.3
2014-Oct-30 07:11 12.8
2014-Oct-30 07:06 045 0 gusting 2 13.3
2014-Oct-30 07:01 045 13.3
2014-Oct-30 06:56 090 12.8
2014-Oct-30 06:51 12.8
2014-Oct-30 06:46 090 13.3
2014-Oct-30 06:41 13.3
2014-Oct-30 06:36 13.3
2014-Oct-30 06:31 045 1 gusting 2 13.3
2014-Oct-30 06:26 270 0 gusting 1 12.8
2014-Oct-30 06:21 045 13.3
2014-Oct-30 06:16 13.9
2014-Oct-30 06:11 13.3
2014-Oct-30 06:06 045 13.3
2014-Oct-30 06:01 315 13.3
2014-Oct-30 05:56 045 1 gusting 2 13.3
2014-Oct-30 05:51 045 13.3
2014-Oct-30 05:46 045 13.3
2014-Oct-30 05:41 045 13.3
2014-Oct-30 05:36 090 13.3
2014-Oct-30 05:31 13.9
2014-Oct-30 05:26 135 13.9
2014-Oct-30 05:21 045 13.9
2014-Oct-30 05:16 090 1 gusting 3 14.4
2014-Oct-30 05:11 045 0 gusting 3 13.9
2014-Oct-30 05:06 315 0 gusting 2 13.9
2014-Oct-30 05:01 315 0 gusting 3 13.9
2014-Oct-30 04:56 14.4
2014-Oct-30 04:51 045 0 gusting 3 14.4
2014-Oct-30 04:46 14.4
2014-Oct-30 04:41 315 0 gusting 2 13.9
2014-Oct-30 04:36 045 0 gusting 3 13.9
2014-Oct-30 04:31 090 13.9
2014-Oct-30 04:26 13.9
2014-Oct-30 04:21 045 14.4
2014-Oct-30 04:16 13.9
2014-Oct-30 04:11 045 13.9
2014-Oct-30 04:06 13.9
2014-Oct-30 04:01 13.9
2014-Oct-30 03:56 13.9
2014-Oct-30 03:51 13.9
2014-Oct-30 03:46 14.4
2014-Oct-30 03:41 315 14.4
2014-Oct-30 03:36 14.4
2014-Oct-30 03:31 090 1 gusting 3 14.4
2014-Oct-30 03:26 090 0 gusting 2 14.4
2014-Oct-30 03:21 14.4
2014-Oct-30 03:16 045 0 gusting 2 14.4
2014-Oct-30 03:11 14.4
2014-Oct-30 03:06 090 14.4
2014-Oct-30 03:01 090 14.4